,,Stat6,,Stat2,,Stat8,,Stat9,,Stat10,,Wind1,,Wind1,
time,status,PA1M_AVG,status,PR1M_SUM,status,RH1M_AVG,status,SR1M_AVG,status,TA1M_AVG,status,W1dAve1m,status,W1sAve1m,
2007-05-29, 00:00:00,VALID,917.704,VALID,0.2,VALID,100,VALID,-0.0169808,VALID,20.2677,VALID,91,VALID,0.86471,
2007-05-29, 00:01:00,VALID,917.721,VALID,0.2,VALID,100,VALID,-0.0339617,VALID,20.2382,VALID,78,VALID,0.778343,
2007-05-29, 00:02:00,VALID,917.731,VALID,0.2,VALID,100,VALID,-0.0849042,VALID,20.235,VALID,60,VALID,0.993786,
2007-05-29, 00:03:00,VALID,917.719,VALID,0,VALID,100,VALID,-0.0849042,VALID,20.2425,VALID,63,VALID,1.12609,
2007-05-29, 00:04:00,VALID,917.722,VALID,0.2,VALID,100,VALID,-0.0849042,VALID,20.239,VALID,56,VALID,1.27344,
2007-05-29, 00:05:00,VALID,917.719,VALID,0,VALID,100,VALID,-0.0849042,VALID,20.239,VALID,60,VALID,1.28325,
2007-05-29, 00:06:00,VALID,917.721,VALID,0.2,VALID,100,VALID,-0.101885,VALID,20.2357,VALID,50,VALID,0.945117,
2007-05-29, 00:07:00,VALID,917.719,VALID,0,VALID,100,VALID,-0.0679233,VALID,20.2485,VALID,42,VALID,0.812855,
2007-05-29, 00:08:00,VALID,917.702,VALID,0,VALID,100,VALID,-0.101885,VALID,20.2287,VALID,39,VALID,0.821221,
2007-05-29, 00:09:00,VALID,917.688,VALID,0,VALID,100,VALID,-0.0849042,VALID,20.2325,VALID,35,VALID,1.06641,
2007-05-29, 00:10:00,VALID,917.688,VALID,0.2,VALID,100,VALID,-0.0679233,VALID,20.2327,VALID,28,VALID,1.17448,
2007-05-29, 00:11:00,VALID,917.683,VALID,0,VALID,100,VALID,-0.0339617,VALID,20.242,VALID,29,VALID,1.09482,
2007-05-29, 00:12:00,VALID,917.669,VALID,0,VALID,100,VALID,-0.0339617,VALID,20.2222,VALID,37,VALID,1.07779,
2007-05-29, 00:13:00,VALID,917.656,VALID,0,VALID,100,VALID,-0.0509425,VALID,20.1995,VALID,39,VALID,0.948958,
2007-05-29, 00:14:00,VALID,917.623,VALID,0,VALID,100,VALID,0,VALID,20.185,VALID,59,VALID,0.902148,
2007-05-29, 00:15:00,VALID,917.592,VALID,0,VALID,100,VALID,0.0339617,VALID,20.1653,VALID,46,VALID,0.952734,
2007-05-29, 00:16:00,VALID,917.575,VALID,0,VALID,100,VALID,0.0339617,VALID,20.1618,VALID,32,VALID,0.850446,
2007-05-29, 00:17:00,VALID,917.547,VALID,0.2,VALID,100,VALID,0.0169808,VALID,20.189,VALID,24,VALID,0.590843,
2007-05-29, 00:18:00,VALID,917.519,VALID,0,VALID,100,VALID,0.0339617,VALID,20.1917,VALID,24,VALID,0.385789,
2007-05-29, 00:19:00,VALID,917.494,VALID,0,VALID,100,VALID,0.0339617,VALID,20.211,VALID,24,VALID,0.380664,
2007-05-29, 00:20:00,VALID,917.468,VALID,0,VALID,100,VALID,0.0339617,VALID,20.201,VALID,24,VALID,0.332508,
2007-05-29, 00:21:00,VALID,917.467,VALID,0,VALID,100,VALID,0.0509425,VALID,20.1845,VALID,24,VALID,0.286523,
2007-05-29, 00:22:00,VALID,917.441,VALID,0,VALID,100,VALID,0.0339617,VALID,20.1812,VALID,24,VALID,0.507431,
2007-05-29, 00:23:00,VALID,917.43,VALID,0,VALID,100,VALID,0.0169808,VALID,20.1847,VALID,24,VALID,0.692769,
2007-05-29, 00:24:00,VALID,917.417,VALID,0,VALID,100,VALID,0.0339617,VALID,20.1888,VALID,24,VALID,0.531795,
2007-05-29, 00:25:00,VALID,917.387,VALID,0,VALID,100,VALID,0,VALID,20.195,VALID,24,VALID,0.506359,
2007-05-29, 00:26:00,VALID,917.384,VALID,0.2,VALID,100,VALID,0.0339617,VALID,20.2075,VALID,24,VALID,0.57649,
2007-05-29, 00:27:00,VALID,917.379,VALID,0,VALID,100,VALID,0.0169808,VALID,20.211,VALID,24,VALID,0.849254,
2007-05-29, 00:28:00,VALID,917.376,VALID,0,VALID,100,VALID,0,VALID,20.1853,VALID,24,VALID,0.836293,
2007-05-29, 00:29:00,VALID,917.358,VALID,0,VALID,100,VALID,-0.0509425,VALID,20.186,VALID,24,VALID,0.712054,
2007-05-29, 00:30:00,VALID,917.343,VALID,0,VALID,100,VALID,-0.0509425,VALID,20.1893,VALID,24,VALID,0.483665,
2007-05-29, 00:31:00,VALID,917.337,VALID,0.2,VALID,100,VALID,-0.0679233,VALID,20.1803,VALID,24,VALID,0.309451,
2007-05-29, 00:32:00,VALID,917.324,VALID,0,VALID,100,VALID,-0.0169808,VALID,20.1736,VALID,24,VALID,0.316315,
2007-05-29, 00:33:00,VALID,917.306,VALID,0.2,VALID,100,VALID,-0.0679233,VALID,20.1673,VALID,24,VALID,0.107292,
2007-05-29, 00:34:00,VALID,917.288,VALID,0,VALID,100,VALID,-0.0849042,VALID,20.1576,VALID,24,VALID,0,
2007-05-29, 00:35:00,VALID,917.272,VALID,0.2,VALID,100,VALID,-0.0679233,VALID,20.1306,VALID,24,VALID,0.0581597,
2007-05-29, 00:36:00,VALID,917.257,VALID,0,VALID,100,VALID,-0.0679233,VALID,20.1409,VALID,24,VALID,0,
2007-05-29, 00:37:00,VALID,917.261,VALID,0.2,VALID,100,VALID,-0.0849042,VALID,20.1576,VALID,24,VALID,0.00106534,
2007-05-29, 00:38:00,VALID,917.239,VALID,0,VALID,100,VALID,-0.0849042,VALID,20.1541,VALID,24,VALID,0.133371,
2007-05-29, 00:39:00,VALID,917.215,VALID,0,VALID,100,VALID,-0.0679233,VALID,20.1444,VALID,24,VALID,0.0428779,
2007-05-29, 00:40:00,VALID,917.198,VALID,0,VALID,100,VALID,-0.0679233,VALID,20.1379,VALID,24,VALID,0.305753,
2007-05-29, 00:41:00,VALID,917.188,VALID,0,VALID,100,VALID,-0.0339617,VALID,20.1471,VALID,24,VALID,0.591025,
2007-05-29, 00:42:00,VALID,917.171,VALID,0,VALID,100,VALID,-0.0679233,VALID,20.1633,VALID,24,VALID,0.655717,
2007-05-29, 00:43:00,VALID,917.134,VALID,0,VALID,100,VALID,-0.0509425,VALID,20.1765,VALID,24,VALID,0.78869,
2007-05-29, 00:44:00,VALID,917.123,VALID,0.2,VALID,100,VALID,0.0339617,VALID,20.1461,VALID,35,VALID,0.654251,
2007-05-29, 00:45:00,VALID,917.097,VALID,0,VALID,100,VALID,0.101885,VALID,20.1485,VALID,34,VALID,0.592685,
2007-05-29, 00:46:00,VALID,917.078,VALID,0,VALID,100,VALID,0.0509425,VALID,20.1518,VALID,34,VALID,0.552885,
2007-05-29, 00:47:00,VALID,917.057,VALID,0,VALID,100,VALID,0.0679233,VALID,20.1421,VALID,44,VALID,1.08267,
2007-05-29, 00:48:00,VALID,917.06,VALID,0,VALID,100,VALID,0.101885,VALID,20.1104,VALID,46,VALID,0.642805,
2007-05-29, 00:49:00,VALID,917.035,VALID,0,VALID,100,VALID,0.0849042,VALID,20.1061,VALID,52,VALID,0.239926,
2007-05-29, 00:50:00,VALID,917.037,VALID,0.2,VALID,100,VALID,0.0679233,VALID,20.1099,VALID,30,VALID,0.323171,
2007-05-29, 00:51:00,VALID,917.021,VALID,0,VALID,100,VALID,0.0849042,VALID,20.0936,VALID,30,VALID,0.511991,
2007-05-29, 00:52:00,VALID,917.01,VALID,0,VALID,100,VALID,0.0849042,VALID,20.0547,VALID,30,VALID,0.0852273,
2007-05-29, 00:53:00,VALID,916.986,VALID,0,VALID,100,VALID,0.0849042,VALID,20.0417,VALID,30,VALID,0.225472,
2007-05-29, 00:54:00,VALID,916.968,VALID,0,VALID,100,VALID,0.101885,VALID,20.0515,VALID,30,VALID,0.13157,
2007-05-29, 00:55:00,VALID,916.944,VALID,0,VALID,100,VALID,0.0849042,VALID,20.0482,VALID,30,VALID,0.00874256,
2007-05-29, 00:56:00,VALID,916.926,VALID,0,VALID,100,VALID,0.0509425,VALID,20.055,VALID,30,VALID,0.154615,
2007-05-29, 00:57:00,VALID,916.9,VALID,0,VALID,100,VALID,0.0679233,VALID,20.0482,VALID,30,VALID,0.153343,
2007-05-29, 00:58:00,VALID,916.868,VALID,0,VALID,100,VALID,0.0339617,VALID,20.0482,VALID,30,VALID,0.26391,
2007-05-29, 00:59:00,VALID,916.846,VALID,0,VALID,100,VALID,-0.0169808,VALID,20.0263,VALID,23,VALID,0.55814,
2007-05-29, 01:00:00,VALID,916.813,VALID,0,VALID,100,VALID,-0.0169808,VALID,20.014,VALID,346,VALID,0.49359,
2007-05-29, 01:01:00,VALID,916.779,VALID,0,VALID,100,VALID,-0.0169808,VALID,20.0043,VALID,341,VALID,0.151972,
2007-05-29, 01:02:00,VALID,916.759,VALID,0,VALID,100,VALID,-0.0169808,VALID,19.9913,VALID,341,VALID,0.08125,
2007-05-29, 01:03:00,VALID,916.748,VALID,0,VALID,100,VALID,-0.0339617,VALID,20.0078,VALID,341,VALID,0.0227431,
2007-05-29, 01:04:00,VALID,916.738,VALID,0,VALID,100,VALID,-0.0509425,VALID,20.0105,VALID,341,VALID,0,
2007-05-29, 01:05:00,VALID,916.707,VALID,0.2,VALID,100,VALID,-0.0169808,VALID,20.027,VALID,341,VALID,0.273983,
2007-05-29, 01:06:00,VALID,916.696,VALID,0,VALID,100,VALID,-0.0339617,VALID,20.0595,VALID,341,VALID,0.223292,
2007-05-29, 01:07:00,VALID,916.682,VALID,0,VALID,100,VALID,-0.0339617,VALID,20.1151,VALID,341,VALID,0.198153,
2007-05-29, 01:08:00,VALID,916.661,VALID,0,VALID,100,VALID,-0.0509425,VALID,20.1471,VALID,341,VALID,0.0876524,
2007-05-29, 01:09:00,VALID,916.645,VALID,0,VALID,100,VALID,-0.0509425,VALID,20.1536,VALID,341,VALID,0.000173611,
2007-05-29, 01:10:00,VALID,916.633,VALID,0,VALID,100,VALID,-0.0849042,VALID,20.1536,VALID,341,VALID,0.186738,
2007-05-29, 01:11:00,VALID,916.62,VALID,0.2,VALID,100,VALID,-0.0339617,VALID,20.1541,VALID,341,VALID,0.0127841,
2007-05-29, 01:12:00,VALID,916.607,VALID,0,VALID,100,VALID,-0.0509425,VALID,20.1276,VALID,341,VALID,0.0146723,
2007-05-29, 01:13:00,VALID,916.604,VALID,0,VALID,100,VALID,0,VALID,20.1174,VALID,341,VALID,0,
2007-05-29, 01:14:00,VALID,916.601,VALID,0,VALID,100,VALID,-0.0509425,VALID,20.1274,VALID,333,VALID,0.173077,
2007-05-29, 01:15:00,VALID,916.588,VALID,0,VALID,100,VALID,-0.0339617,VALID,20.1174,VALID,300,VALID,0.0719105,
2007-05-29, 01:16:00,VALID,916.586,VALID,0,VALID,100,VALID,-0.0169808,VALID,20.1136,VALID,300,VALID,0,
2007-05-29, 01:17:00,VALID,916.578,VALID,0,VALID,100,VALID,0,VALID,20.1109,VALID,300,VALID,0.133008,
2007-05-29, 01:18:00,VALID,916.563,VALID,0,VALID,100,VALID,-0.0339617,VALID,20.1241,VALID,300,VALID,0.192406,
2007-05-29, 01:19:00,VALID,916.535,VALID,0,VALID,100,VALID,-0.0509425,VALID,20.1114,VALID,300,VALID,0.330729,
2007-05-29, 01:20:00,VALID,916.516,VALID,0,VALID,100,VALID,-0.0169808,VALID,20.1276,VALID,300,VALID,0.30609,
2007-05-29, 01:21:00,VALID,916.499,VALID,0.2,VALID,100,VALID,-0.0339617,VALID,20.1274,VALID,310,VALID,0.334032,
2007-05-29, 01:22:00,VALID,916.479,VALID,0,VALID,100,VALID,-0.0679233,VALID,20.1471,VALID,15,VALID,0.65918,
2007-05-29, 01:23:00,VALID,916.479,VALID,0,VALID,100,VALID,-0.0339617,VALID,20.1466,VALID,25,VALID,0.535823,
2007-05-29, 01:24:00,VALID,916.467,VALID,0,VALID,100,VALID,-0.0169808,VALID,20.1763,VALID,40,VALID,0.729297,
2007-05-29, 01:25:00,VALID,916.458,VALID,0.2,VALID,100,VALID,-0.0169808,VALID,20.1763,VALID,34,VALID,0.381882,
2007-05-29, 01:26:00,VALID,916.454,VALID,0,VALID,100,VALID,-0.0339617,VALID,20.1366,VALID,32,VALID,0.864462,
2007-05-29, 01:27:00,VALID,916.455,VALID,0,VALID,100,VALID,-0.0339617,VALID,20.1274,VALID,30,VALID,0.513148,
2007-05-29, 01:28:00,VALID,916.44,VALID,0,VALID,100,VALID,0,VALID,20.1044,VALID,28,VALID,0.0974609,
2007-05-29, 01:29:00,VALID,916.455,VALID,0,VALID,100,VALID,-0.0169808,VALID,20.1174,VALID,28,VALID,0.257813,
2007-05-29, 01:30:00,VALID,916.46,VALID,0,VALID,100,VALID,-0.0509425,VALID,20.0952,VALID,22,VALID,0.720749,
2007-05-29, 01:31:00,VALID,916.472,VALID,0.2,VALID,100,VALID,0,VALID,20.0984,VALID,6,VALID,0.414634,
2007-05-29, 01:32:00,VALID,916.486,VALID,0,VALID,100,VALID,-0.0169808,VALID,20.0976,VALID,63,VALID,0.633358,
2007-05-29, 01:33:00,VALID,916.495,VALID,0,VALID,100,VALID,0,VALID,20.0784,VALID,34,VALID,0.73738,
2007-05-29, 01:34:00,VALID,916.495,VALID,0,VALID,100,VALID,0,VALID,20.0462,VALID,25,VALID,0.926235,
2007-05-29, 01:35:00,VALID,916.505,VALID,0,VALID,100,VALID,-0.0169808,VALID,20.0432,VALID,25,VALID,0.870094,
2007-05-29, 01:36:00,VALID,916.511,VALID,0,VALID,100,VALID,-0.0509425,VALID,20.0365,VALID,37,VALID,0.91915,
2007-05-29, 01:37:00,VALID,916.527,VALID,0,VALID,100,VALID,-0.0679233,VALID,20.0335,VALID,24,VALID,1.15873,
2007-05-29, 01:38:00,VALID,916.524,VALID,0,VALID,100,VALID,-0.0339617,VALID,20.0467,VALID,28,VALID,0.917492,
2007-05-29, 01:39:00,VALID,916.536,VALID,0,VALID,100,VALID,-0.0169808,VALID,20.0205,VALID,27,VALID,0.972929,
2007-05-29, 01:40:00,VALID,916.546,VALID,0,VALID,100,VALID,-0.0169808,VALID,20.0233,VALID,32,VALID,0.437686,
2007-05-29, 01:41:00,VALID,916.542,VALID,0,VALID,100,VALID,0,VALID,20.0497,VALID,36,VALID,0.324751,
2007-05-29, 01:42:00,VALID,916.527,VALID,0,VALID,100,VALID,0,VALID,20.0657,VALID,37,VALID,0.290483,
2007-05-29, 01:43:00,VALID,916.532,VALID,0,VALID,100,VALID,0,VALID,20.069,VALID,37,VALID,0.0768229,
2007-05-29, 01:44:00,VALID,916.528,VALID,0,VALID,100,VALID,0,VALID,20.0465,VALID,37,VALID,0.326451,
2007-05-29, 01:45:00,VALID,916.526,VALID,0,VALID,100,VALID,-0.0339617,VALID,20.0205,VALID,71,VALID,0.444931,
2007-05-29, 01:46:00,VALID,916.52,VALID,0,VALID,100,VALID,-0.0339617,VALID,20.0108,VALID,131,VALID,0.488281,
2007-05-29, 01:47:00,VALID,916.513,VALID,0,VALID,100,VALID,-0.0169808,VALID,20.007,VALID,142,VALID,0.55545,
2007-05-29, 01:48:00,VALID,916.496,VALID,0,VALID,100,VALID,-0.0849042,VALID,20.0108,VALID,156,VALID,0.545455,
2007-05-29, 01:49:00,VALID,916.484,VALID,0,VALID,100,VALID,-0.0339617,VALID,20.0108,VALID,155,VALID,0.498857,
2007-05-29, 01:50:00,VALID,916.467,VALID,0,VALID,100,VALID,-0.0509425,VALID,20.0173,VALID,154,VALID,0.62282,
2007-05-29, 01:51:00,VALID,916.455,VALID,0,VALID,100,VALID,-0.0509425,VALID,20.0076,VALID,149,VALID,0.573509,
2007-05-29, 01:52:00,VALID,916.441,VALID,0,VALID,100,VALID,-0.0169808,VALID,20.0035,VALID,147,VALID,0.587391,
2007-05-29, 01:53:00,VALID,916.423,VALID,0,VALID,100,VALID,-0.0169808,VALID,20.017,VALID,144,VALID,0.392401,
2007-05-29, 01:54:00,VALID,916.391,VALID,0,VALID,100,VALID,-0.0169808,VALID,20.0235,VALID,142,VALID,0.51213,
2007-05-29, 01:55:00,VALID,916.376,VALID,0,VALID,100,VALID,-0.0509425,VALID,20.0138,VALID,125,VALID,0.410352,
2007-05-29, 01:56:00,VALID,916.348,VALID,0,VALID,100,VALID,0,VALID,20.0368,VALID,109,VALID,0.506445,
2007-05-29, 01:57:00,VALID,916.326,VALID,0,VALID,100,VALID,-0.0169808,VALID,20.0562,VALID,93,VALID,0.498397,
2007-05-29, 01:58:00,VALID,916.301,VALID,0,VALID,100,VALID,-0.0509425,VALID,20.0592,VALID,86,VALID,0.669497,
2007-05-29, 01:59:00,VALID,916.284,VALID,0,VALID,100,VALID,-0.0339617,VALID,20.0425,VALID,57,VALID,0.718006,
2007-05-29, 02:00:00,VALID,916.249,VALID,0,VALID,100,VALID,-0.0339617,VALID,20.04,VALID,57,VALID,0.750347,
2007-05-29, 02:01:00,VALID,916.228,VALID,0,VALID,100,VALID,-0.0169808,VALID,20.0265,VALID,59,VALID,0.760603,
2007-05-29, 02:02:00,VALID,916.216,VALID,0,VALID,100,VALID,-0.0679233,VALID,20.0298,VALID,55,VALID,0.636814,
2007-05-29, 02:03:00,VALID,916.19,VALID,0,VALID,100,VALID,-0.0169808,VALID,20.0003,VALID,66,VALID,0.495313,
2007-05-29, 02:04:00,VALID,916.188,VALID,0,VALID,100,VALID,0.0169808,VALID,19.9968,VALID,66,VALID,0.381214,
2007-05-29, 02:05:00,VALID,916.157,VALID,0,VALID,100,VALID,0,VALID,19.9971,VALID,67,VALID,0.312318,
2007-05-29, 02:06:00,VALID,916.15,VALID,0,VALID,100,VALID,-0.0509425,VALID,19.9876,VALID,67,VALID,0.207813,
2007-05-29, 02:07:00,VALID,916.135,VALID,0,VALID,100,VALID,-0.0339617,VALID,19.9878,VALID,69,VALID,0.359193,
2007-05-29, 02:08:00,VALID,916.112,VALID,0,VALID,100,VALID,-0.0169808,VALID,19.9908,VALID,69,VALID,0.214472,
2007-05-29, 02:09:00,VALID,916.107,VALID,0,VALID,100,VALID,-0.0509425,VALID,20.0135,VALID,69,VALID,0.132431,
2007-05-29, 02:10:00,VALID,916.098,VALID,0,VALID,100,VALID,0,VALID,20.0303,VALID,65,VALID,0.258384,
2007-05-29, 02:11:00,VALID,916.079,VALID,0,VALID,100,VALID,0,VALID,20.0465,VALID,62,VALID,0.399132,
2007-05-29, 02:12:00,VALID,916.071,VALID,0,VALID,100,VALID,-0.0339617,VALID,20.0303,VALID,52,VALID,0.499637,
2007-05-29, 02:13:00,VALID,916.058,VALID,0,VALID,100,VALID,-0.0509425,VALID,20.0403,VALID,39,VALID,0.443979,
2007-05-29, 02:14:00,VALID,916.051,VALID,0,VALID,100,VALID,-0.0169808,VALID,20.0527,VALID,39,VALID,0.420922,
2007-05-29, 02:15:00,VALID,916.047,VALID,0,VALID,100,VALID,0.0339617,VALID,20.0322,VALID,39,VALID,0.465732,
2007-05-29, 02:16:00,VALID,916.034,VALID,0,VALID,100,VALID,0.0169808,VALID,20.0193,VALID,39,VALID,0.480273,
2007-05-29, 02:17:00,VALID,916.026,VALID,0,VALID,100,VALID,0.0169808,VALID,20.032,VALID,39,VALID,0.40346,
2007-05-29, 02:18:00,VALID,916.016,VALID,0,VALID,100,VALID,0.0679233,VALID,20.0195,VALID,39,VALID,0.508765,
2007-05-29, 02:19:00,VALID,915.999,VALID,0,VALID,100,VALID,0.0509425,VALID,20.0125,VALID,39,VALID,0.442773,
2007-05-29, 02:20:00,VALID,915.993,VALID,0,VALID,100,VALID,0.0339617,VALID,20.0387,VALID,39,VALID,0.582741,
2007-05-29, 02:21:00,VALID,915.994,VALID,0,VALID,100,VALID,0.0339617,VALID,20.0158,VALID,38,VALID,0.604688,
2007-05-29, 02:22:00,VALID,915.98,VALID,0,VALID,100,VALID,0.0679233,VALID,20.0287,VALID,37,VALID,0.529688,
2007-05-29, 02:23:00,VALID,915.972,VALID,0,VALID,100,VALID,0.0509425,VALID,20.0223,VALID,40,VALID,0.512277,
2007-05-29, 02:24:00,VALID,915.963,VALID,0,VALID,100,VALID,0.0509425,VALID,20.0158,VALID,42,VALID,0.596657,
2007-05-29, 02:25:00,VALID,915.953,VALID,0,VALID,100,VALID,0.0679233,VALID,20.0125,VALID,47,VALID,0.399528,
2007-05-29, 02:26:00,VALID,915.943,VALID,0,VALID,100,VALID,0.0679233,VALID,20.0385,VALID,47,VALID,0.0287729,
2007-05-29, 02:27:00,VALID,915.934,VALID,0,VALID,100,VALID,0.0509425,VALID,20.0612,VALID,47,VALID,0,
2007-05-29, 02:28:00,VALID,915.923,VALID,0,VALID,100,VALID,0.0169808,VALID,20.055,VALID,46,VALID,0.0581174,
2007-05-29, 02:29:00,VALID,915.923,VALID,0,VALID,100,VALID,-0.0509425,VALID,20.069,VALID,43,VALID,0.0939405,
2007-05-29, 02:30:00,VALID,915.921,VALID,0,VALID,100,VALID,-0.0169808,VALID,20.053,VALID,43,VALID,0,
2007-05-29, 02:31:00,VALID,915.924,VALID,0,VALID,100,VALID,-0.0339617,VALID,20.0625,VALID,43,VALID,0,
2007-05-29, 02:32:00,VALID,915.926,VALID,0,VALID,100,VALID,-0.0509425,VALID,20.0757,VALID,43,VALID,0.0174851,
2007-05-29, 02:33:00,VALID,915.912,VALID,0,VALID,100,VALID,0,VALID,20.066,VALID,43,VALID,0.0552455,
2007-05-29, 02:34:00,VALID,915.897,VALID,0,VALID,100,VALID,-0.0509425,VALID,20.0627,VALID,43,VALID,0,
2007-05-29, 02:35:00,VALID,915.89,VALID,0,VALID,100,VALID,-0.0339617,VALID,20.0592,VALID,43,VALID,0,
2007-05-29, 02:36:00,VALID,915.877,VALID,0,VALID,100,VALID,-0.0509425,VALID,20.0557,VALID,43,VALID,0,
2007-05-29, 02:37:00,VALID,915.865,VALID,0,VALID,100,VALID,-0.0169808,VALID,20.053,VALID,43,VALID,0,
2007-05-29, 02:38:00,VALID,915.843,VALID,0,VALID,100,VALID,-0.0169808,VALID,20.05,VALID,43,VALID,0,
2007-05-29, 02:39:00,VALID,915.834,VALID,0,VALID,100,VALID,-0.0679233,VALID,20.0732,VALID,43,VALID,0,
2007-05-29, 02:40:00,VALID,915.818,VALID,0,VALID,100,VALID,-0.0509425,VALID,20.066,VALID,43,VALID,0,
2007-05-29, 02:41:00,VALID,915.802,VALID,0,VALID,100,VALID,-0.0339617,VALID,20.066,VALID,43,VALID,0,
2007-05-29, 02:42:00,VALID,915.798,VALID,0,VALID,100,VALID,-0.0509425,VALID,20.0797,VALID,43,VALID,0,
2007-05-29, 02:43:00,VALID,915.789,VALID,0,VALID,100,VALID,-0.0339617,VALID,20.0692,VALID,43,VALID,0,
2007-05-29, 02:44:00,VALID,915.783,VALID,0,VALID,100,VALID,-0.0339617,VALID,20.0627,VALID,43,VALID,0,
2007-05-29, 02:45:00,VALID,915.778,VALID,0,VALID,100,VALID,-0.0339617,VALID,20.0725,VALID,43,VALID,0.0978338,
2007-05-29, 02:46:00,VALID,915.782,VALID,0.2,VALID,100,VALID,-0.0509425,VALID,20.0727,VALID,43,VALID,0.306504,
2007-05-29, 02:47:00,VALID,915.775,VALID,0,VALID,100,VALID,-0.0679233,VALID,20.0627,VALID,43,VALID,0.265262,
2007-05-29, 02:48:00,VALID,915.777,VALID,0,VALID,100,VALID,-0.101885,VALID,20.0727,VALID,43,VALID,0.154978,
2007-05-29, 02:49:00,VALID,915.778,VALID,0,VALID,100,VALID,-0.0679233,VALID,20.0727,VALID,70,VALID,0.361506,
2007-05-29, 02:50:00,VALID,915.759,VALID,0,VALID,100,VALID,-0.0679233,VALID,20.0697,VALID,79,VALID,0.33194,
2007-05-29, 02:51:00,VALID,915.764,VALID,0,VALID,100,VALID,-0.0679233,VALID,20.063,VALID,79,VALID,0.151521,
2007-05-29, 02:52:00,VALID,915.749,VALID,0,VALID,100,VALID,-0.0849042,VALID,20.066,VALID,79,VALID,0.150036,
2007-05-29, 02:53:00,VALID,915.747,VALID,0,VALID,100,VALID,-0.0509425,VALID,20.0757,VALID,79,VALID,0.242746,
2007-05-29, 02:54:00,VALID,915.732,VALID,0,VALID,100,VALID,-0.0509425,VALID,20.066,VALID,102,VALID,0.330256,
2007-05-29, 02:55:00,VALID,915.727,VALID,0,VALID,100,VALID,-0.0509425,VALID,20.0697,VALID,109,VALID,0.250521,
2007-05-29, 02:56:00,VALID,915.701,VALID,0,VALID,100,VALID,-0.0679233,VALID,20.0797,VALID,105,VALID,0.521341,
2007-05-29, 02:57:00,VALID,915.697,VALID,0,VALID,100,VALID,-0.0339617,VALID,20.0887,VALID,98,VALID,0.398438,
2007-05-29, 02:58:00,VALID,915.697,VALID,0,VALID,100,VALID,-0.0169808,VALID,20.1017,VALID,98,VALID,0.393864,
2007-05-29, 02:59:00,VALID,915.689,VALID,0,VALID,100,VALID,-0.0509425,VALID,20.0887,VALID,98,VALID,0.360577,
2007-05-29, 03:00:00,VALID,915.683,VALID,0,VALID,100,VALID,-0.0339617,VALID,20.0984,VALID,98,VALID,0.285247,
2007-05-29, 03:01:00,VALID,915.688,VALID,0,VALID,100,VALID,-0.0339617,VALID,20.1079,VALID,90,VALID,0.353516,
2007-05-29, 03:02:00,VALID,915.698,VALID,0,VALID,100,VALID,-0.0339617,VALID,20.1076,VALID,87,VALID,0.35119,
2007-05-29, 03:03:00,VALID,915.699,VALID,0,VALID,100,VALID,-0.0509425,VALID,20.1241,VALID,87,VALID,0.213265,
2007-05-29, 03:04:00,VALID,915.706,VALID,0,VALID,100,VALID,-0.0679233,VALID,20.1114,VALID,87,VALID,0.115141,
2007-05-29, 03:05:00,VALID,915.703,VALID,0,VALID,100,VALID,-0.0509425,VALID,20.1084,VALID,87,VALID,0,
2007-05-29, 03:06:00,VALID,915.715,VALID,0,VALID,100,VALID,-0.0679233,VALID,20.1249,VALID,87,VALID,0.0756479,
2007-05-29, 03:07:00,VALID,915.727,VALID,0,VALID,100,VALID,-0.101885,VALID,20.1214,VALID,87,VALID,0.124818,
2007-05-29, 03:08:00,VALID,915.739,VALID,0,VALID,100,VALID,-0.101885,VALID,20.0887,VALID,87,VALID,0.143229,
2007-05-29, 03:09:00,VALID,915.748,VALID,0,VALID,100,VALID,-0.0849042,VALID,20.0987,VALID,87,VALID,0.257254,
2007-05-29, 03:10:00,VALID,915.756,VALID,0,VALID,100,VALID,-0.0679233,VALID,20.0787,VALID,87,VALID,0.169097,
2007-05-29, 03:11:00,VALID,915.777,VALID,0,VALID,100,VALID,-0.0509425,VALID,20.0592,VALID,87,VALID,0.190104,
2007-05-29, 03:12:00,VALID,915.784,VALID,0,VALID,100,VALID,-0.0849042,VALID,20.07,VALID,77,VALID,0.230655,
2007-05-29, 03:13:00,VALID,915.8,VALID,0,VALID,100,VALID,-0.0679233,VALID,20.0535,VALID,71,VALID,0.3621,
2007-05-29, 03:14:00,VALID,915.792,VALID,0,VALID,100,VALID,0,VALID,20.0432,VALID,61,VALID,0.217115,
2007-05-29, 03:15:00,VALID,915.801,VALID,0,VALID,100,VALID,-0.0169808,VALID,20.0432,VALID,41,VALID,0.319767,
2007-05-29, 03:16:00,VALID,915.814,VALID,0,VALID,100,VALID,0,VALID,20.0395,VALID,35,VALID,0.061942,
2007-05-29, 03:17:00,VALID,915.83,VALID,0,VALID,100,VALID,0,VALID,20.039,VALID,35,VALID,0.0339177,
2007-05-29, 03:18:00,VALID,915.849,VALID,0,VALID,100,VALID,-0.0169808,VALID,20.0657,VALID,29,VALID,0.24256,
2007-05-29, 03:19:00,VALID,915.853,VALID,0,VALID,100,VALID,-0.0169808,VALID,20.0789,VALID,21,VALID,0.296113,
2007-05-29, 03:20:00,VALID,915.844,VALID,0,VALID,100,VALID,-0.0169808,VALID,20.0725,VALID,20,VALID,0.0303199,
2007-05-29, 03:21:00,VALID,915.835,VALID,0,VALID,100,VALID,0,VALID,20.0657,VALID,20,VALID,0,
2007-05-29, 03:22:00,VALID,915.85,VALID,0,VALID,100,VALID,0,VALID,20.0622,VALID,20,VALID,0.000390625,
2007-05-29, 03:23:00,VALID,915.862,VALID,0,VALID,100,VALID,-0.0169808,VALID,20.0852,VALID,20,VALID,0.00053267,
2007-05-29, 03:24:00,VALID,915.858,VALID,0,VALID,100,VALID,0,VALID,20.1046,VALID,20,VALID,0,
2007-05-29, 03:25:00,VALID,915.865,VALID,0,VALID,100,VALID,-0.0169808,VALID,20.1114,VALID,20,VALID,0,
2007-05-29, 03:26:00,VALID,915.862,VALID,0,VALID,100,VALID,-0.0169808,VALID,20.1214,VALID,20,VALID,0.107465,
2007-05-29, 03:27:00,VALID,915.856,VALID,0,VALID,100,VALID,-0.0169808,VALID,20.1176,VALID,20,VALID,0.0641352,
2007-05-29, 03:28:00,VALID,915.867,VALID,0,VALID,100,VALID,0,VALID,20.1179,VALID,20,VALID,0.336301,
2007-05-29, 03:29:00,VALID,915.864,VALID,0,VALID,100,VALID,0,VALID,20.1079,VALID,20,VALID,0.177734,
2007-05-29, 03:30:00,VALID,915.863,VALID,0,VALID,100,VALID,-0.0339617,VALID,20.1276,VALID,20,VALID,0.213601,
2007-05-29, 03:31:00,VALID,915.859,VALID,0,VALID,100,VALID,-0.0339617,VALID,20.1211,VALID,20,VALID,0.130859,
2007-05-29, 03:32:00,VALID,915.868,VALID,0,VALID,100,VALID,-0.0169808,VALID,20.1209,VALID,20,VALID,0.262718,
2007-05-29, 03:33:00,VALID,915.881,VALID,0,VALID,100,VALID,-0.0339617,VALID,20.1181,VALID,20,VALID,0.206577,
2007-05-29, 03:34:00,VALID,915.872,VALID,0,VALID,100,VALID,0,VALID,20.1276,VALID,20,VALID,0.133984,
2007-05-29, 03:35:00,VALID,915.884,VALID,0,VALID,100,VALID,-0.0169808,VALID,20.1179,VALID,20,VALID,0.0199855,
2007-05-29, 03:36:00,VALID,915.894,VALID,0,VALID,100,VALID,-0.0169808,VALID,20.1279,VALID,20,VALID,0,
2007-05-29, 03:37:00,VALID,915.907,VALID,0,VALID,100,VALID,-0.0169808,VALID,20.1441,VALID,20,VALID,0,
2007-05-29, 03:38:00,VALID,915.904,VALID,0,VALID,100,VALID,-0.0509425,VALID,20.1736,VALID,20,VALID,0.0012429,
2007-05-29, 03:39:00,VALID,915.907,VALID,0,VALID,100,VALID,-0.0339617,VALID,20.1763,VALID,20,VALID,0.0305233,